Terminal Aerodrome Forecast
Issued by NWS

Home | Current Version | Previous Version | Text Only | Print | Product List | Glossary On
Versions: 1 2 3 4 5 6 7 8 9 10 11 12 13 14 15 16 17 18 19 20 21 22 23 24 25 26 27 28 29 30 31 32 33 34 35 36 37 38 39 40 41 42 43 44 45 46
000
FTUS43 KGLD 190520
TAFMCK
TAF
KMCK 190520Z 1906/2006 00000KT 1/4SM FG VV009
      TEMPO 1911/1913 3SM BR
     FM191300 21006KT 5SM BR BKN003
     FM191400 21005KT P6SM SCT003
     FM191500 22015G20KT P6SM SKC
     FM200000 19010KT P6SM SKC=

USA.gov is the U.S. government's official web portal to all federal, state and local government web resources and services.